Location: Recife
(8.0585°S, 34.8848°W)
Time: 07:59:20
(UTC-03:00)

Courier 1B - Pass Details

Date: 16 April 2026
Orbit: 962 x 1209 km, 28.3° (Epoch: 13 May)

Event Time Altitude Azimuth Distance (km) Brightness Sun altitude
Rises 08:16:07 0° 252° (WSW) 4,097 10.3 40.9°
Reaches altitude 10° 08:19:59 10° 235° (SW) 3,146 9.8 41.8°
Maximum altitude 08:25:17 19° 192° (SSW) 2,519 9.6 43.0°
Drops below altitude 10° 08:30:34 10° 149° (SSE) 3,125 10.3 44.2°
Sets 08:34:24 0° 132° (SE) 4,060 11.0 45.1°
